DAL162 EHAM-KMSP

Flight info

Callsign DAL162
Flight time N/A
Altitude 38000
Route BERGI L602 NALAX L46 ESHIN N110 ERKIT DCT GOMUP/M085F380 DCT 59N020W 5930N03000W 5930N04000W 59N050W DCT URTAK/N0493F380 DCT 57N070W 54N080W/N0497F400 50N088W DCT DLH DCT MILAC BAINY4
Aircraft A359/H-SDE2E3GHIJ3J4J5LM1ORWXY/LB1D1

Departure

Time 2026-05-05 07:43
Airport Amsterdam Airport Schiphol (EHAM)

Arrival

Time N/A
Airport Minneapolis–Saint Paul International Airport / Wold–Chamberlain Field (KMSP)
Time Latitude Longitude Altitude Speed Heading
2026-05-05 06:52 52.31379 4.76735 5 ft 0 kts 123°
2026-05-05 07:26 52.31379 4.76734 5 ft 1 kts 123°
2026-05-05 07:26 52.31394 4.76705 6 ft 4 kts 122°
2026-05-05 07:26 52.31399 4.76676 7 ft 4 kts 79°
2026-05-05 07:26 52.31395 4.76642 7 ft 3 kts 88°
2026-05-05 07:27 52.31395 4.76603 5 ft 3 kts 64°
2026-05-05 07:27 52.31383 4.76573 7 ft 4 kts 31°
2026-05-05 07:27 52.31368 4.76559 7 ft 0 kts 34°
2026-05-05 07:33 52.31374 4.76565 7 ft 3 kts 34°
2026-05-05 07:34 52.31402 4.76596 6 ft 6 kts 32°
2026-05-05 07:34 52.31440 4.76637 5 ft 7 kts 35°
2026-05-05 07:34 52.31485 4.76674 5 ft 7 kts
2026-05-05 07:34 52.31534 4.76652 5 ft 7 kts 317°
2026-05-05 07:35 52.31548 4.76571 5 ft 8 kts 274°
2026-05-05 07:35 52.31547 4.76467 5 ft 10 kts 267°
2026-05-05 07:35 52.31543 4.76342 5 ft 12 kts 266°
2026-05-05 07:35 52.31537 4.76198 5 ft 14 kts 267°
2026-05-05 07:36 52.31532 4.76034 5 ft 15 kts 266°
2026-05-05 07:36 52.31525 4.75852 5 ft 17 kts 266°
2026-05-05 07:36 52.31518 4.75652 5 ft 18 kts 268°
2026-05-05 07:36 52.31511 4.75436 5 ft 20 kts 266°
2026-05-05 07:37 52.31504 4.75207 5 ft 21 kts 267°
2026-05-05 07:37 52.31496 4.74963 5 ft 22 kts 267°
2026-05-05 07:37 52.31487 4.74708 5 ft 23 kts 267°
2026-05-05 07:37 52.31479 4.74451 5 ft 18 kts 267°
2026-05-05 07:38 52.31471 4.74280 5 ft 10 kts 261°
2026-05-05 07:38 52.31452 4.74203 5 ft 8 kts 236°
2026-05-05 07:38 52.31403 4.74148 5 ft 9 kts 197°
2026-05-05 07:38 52.31331 4.74133 5 ft 11 kts 184°
2026-05-05 07:39 52.31246 4.74122 5 ft 13 kts 184°
2026-05-05 07:39 52.31146 4.74110 5 ft 15 kts 184°
2026-05-05 07:39 52.31035 4.74105 5 ft 17 kts 183°
2026-05-05 07:39 52.30913 4.74095 5 ft 18 kts 183°
2026-05-05 07:40 52.30779 4.74083 5 ft 20 kts 184°
2026-05-05 07:40 52.30646 4.74071 5 ft 19 kts 183°
2026-05-05 07:40 52.30519 4.74059 5 ft 17 kts 183°
2026-05-05 07:40 52.30439 4.74051 5 ft 10 kts 183°
2026-05-05 07:41 52.30364 4.74031 5 ft 12 kts 197°
2026-05-05 07:41 52.30282 4.73979 5 ft 13 kts 206°
2026-05-05 07:41 52.30225 4.73919 5 ft 9 kts 216°
2026-05-05 07:41 52.30191 4.73829 4 ft 10 kts 262°
2026-05-05 07:42 52.30226 4.73749 3 ft 10 kts 346°
2026-05-05 07:42 52.30251 4.73746 3 ft 0 kts 359°
2026-05-05 07:42 52.30257 4.73745 3 ft 5 kts 359°
2026-05-05 07:42 52.30448 4.73759 3 ft 58 kts
2026-05-05 07:43 52.31043 4.73816 6 ft 114 kts
2026-05-05 07:43 52.32003 4.73903 26 ft 159 kts
2026-05-05 07:43 52.33069 4.73991 746 ft 147 kts
2026-05-05 07:43 52.34087 4.73984 1397 ft 150 kts 355°
2026-05-05 07:44 52.35130 4.73384 1714 ft 171 kts 337°
2026-05-05 07:44 52.36212 4.72323 2027 ft 191 kts 330°
2026-05-05 07:44 52.37373 4.71021 2326 ft 213 kts 329°
2026-05-05 07:44 52.38657 4.69602 2720 ft 230 kts 330°
2026-05-05 07:45 52.40033 4.68175 3295 ft 238 kts 331°
2026-05-05 07:45 52.41457 4.66781 3998 ft 240 kts 332°
2026-05-05 07:45 52.42927 4.65400 4585 ft 248 kts 332°
2026-05-05 07:45 52.44435 4.64012 5117 ft 256 kts 332°
2026-05-05 07:46 52.46005 4.62581 5813 ft 260 kts 331°
2026-05-05 07:46 52.47599 4.61132 6481 ft 265 kts 331°
2026-05-05 07:46 52.49223 4.59650 7161 ft 268 kts 330°
2026-05-05 07:46 52.50855 4.58153 7929 ft 270 kts 330°
2026-05-05 07:47 52.52501 4.56641 8732 ft 271 kts 329°
2026-05-05 07:47 52.54148 4.55122 9571 ft 273 kts 329°
2026-05-05 07:47 52.55821 4.53578 10206 ft 280 kts 329°
2026-05-05 07:47 52.57542 4.51984 10576 ft 296 kts 329°
2026-05-05 07:48 52.59390 4.50272 10932 ft 313 kts 329°
2026-05-05 07:48 52.61332 4.48471 11340 ft 328 kts 329°
2026-05-05 07:48 52.63367 4.46585 11711 ft 343 kts 329°
2026-05-05 07:48 52.65476 4.44631 12184 ft 352 kts 329°
2026-05-05 07:49 52.67625 4.42639 12803 ft 359 kts 329°
2026-05-05 07:49 52.69825 4.40598 13452 ft 364 kts 329°